Regional Weather Roundup
Issued by NWS

Home | Current Version | Previous Version | Text Only | Print | Product List | Glossary On
Versions: 1 2 3 4 5 6 7 8 9 10 11 12 13 14 15 16 17 18 19 20 21 22 23 24 25 26 27 28 29 30 31 32 33 34 35 36 37 38 39 40 41 42 43 44 45 46 47 48 49 50
000
ASUS45 KABQ 221610
RWRNM
NEW MEXICO REGIONAL WEATHER ROUNDUP
NATIONAL WEATHER SERVICE ALBUQUERQUE NM
1000 AM MDT SUN APR 22 2018

NOTE: "FAIR" MEANS FEW OR NO CLOUDS BELOW 12,000 FEET AGL WITH NO
       SIGNIFICANT WEATHER OR OBSTRUCTIONS TO VISION.

      THIS PRODUCT IS RELEASED AS TWO VERSIONS.  ONE VERSION NEAR
      THE TOP OF THE HOUR CONTAINING PRELIMINARY DATA FROM ALBUQUERQUE
      AND OTHER STATIONS.  A FINAL VERSION WITH ADDITIONAL DATA IS
      ISSUED ABOUT 10 MINUTES AFTER THE HOUR.

NMZ501-503-504-510>518-221700-
NORTHWEST PLATEAU/NORTHCENTRAL MOUNTAINS

CITY           SKY/WX    TMP DP  RH WIND       PRES   REMARKS
FARMINGTON     FAIR      52  22  30 SE7       30.17F
LOS ALAMOS     FAIR      50  29  44 NE8       30.25S
SANTA FE       FAIR      54  33  45 N8        30.22S
TAOS           FAIR      51  25  36 VRB5      30.27S
ANGEL FIRE     FAIR      46  23  39 CALM      30.28S

$$
NMZ402-403-502-505>509-221700-
WESTCENTRAL MOUNTAINS/SOUTHWEST MOUNTAINS

CITY           SKY/WX    TMP DP  RH WIND       PRES   REMARKS
GALLUP         FAIR      53  27  36 CALM      30.22S
GRANTS         FAIR      53  24  32 NW5       30.23F
SILVER CITY    FAIR      63  22  20 SE8       30.18S

$$
NMZ407-409-411-412-221700-
SOUTHERN DESERTS

CITY           SKY/WX    TMP DP  RH WIND       PRES   REMARKS
DEMING         FAIR      65  27  23 E12       30.14R
LAS CRUCES     FAIR      62  29  28 SE9       30.16S
HOLLOMAN AFB   FAIR      64  31  29 CALM      30.20S
ALAMOGORDO     FAIR      59  28  31 NW3       30.18F
T OR C         FAIR      64  29  26 E6        30.16S

$$
NMZ519>523-221700-
CENTRAL VALLEYS/CENTRAL HIGHLANDS

CITY           SKY/WX    TMP DP  RH WIND       PRES   REMARKS
ALBUQUERQUE    FAIR      54  34  46 NW6       30.20S
DOUBLE EAGLE   MOSUNNY   54  30  40 N12       30.22S
MORIARTY ARPT  FAIR      51  37  59 CALM      30.25S
CLINES CORNERS FAIR      52  33  48 VRB6      30.24F
BELEN          FAIR      55  32  40 CALM      30.21S
SOCORRO        FAIR      57  30  35 N10       30.19F

$$
NMZ524>526-539-540-221700-
SOUTHCENTRAL MOUNTAINS

CITY           SKY/WX    TMP DP  RH WIND       PRES   REMARKS
RUIDOSO        NOT AVBL

$$
NMZ527>531-221700-
NORTHEAST HIGHLANDS/NORTHEAST PLAINS

CITY           SKY/WX    TMP DP  RH WIND       PRES   REMARKS
LAS VEGAS      FAIR      55  25  31 NE5       30.21S
RATON          FAIR      51  34  52 E6        30.18F
CLAYTON        CLOUDY    47  41  80 NE13      30.19R

$$
NMZ532>537-221700-
EASTCENTRAL PLAINS

CITY           SKY/WX    TMP DP  RH WIND       PRES   REMARKS
SANTA ROSA     FAIR      53  36  53 SW10      30.19F
TUCUMCARI      FAIR      52  42  69 CALM      30.18S
CANNON AFB     FAIR      51  44  79 SW6       30.22S
CLOVIS AIRPORT FAIR      51  38  60 VRB3      30.23S

$$
NMZ028-029-538-221700-
SOUTHEAST PLAINS

CITY           SKY/WX    TMP DP  RH WIND       PRES   REMARKS
ROSWELL        FAIR      54  39  57 S5        30.21F
ARTESIA        FAIR      54  39  58 SE10      30.23F
CARLSBAD       FAIR      55  41  59 VRB3      30.22F
HOBBS          SUNNY     55  37  50 VRB3      30.23F


$$



USA.gov is the U.S. government's official web portal to all federal, state and local government web resources and services.